Regional Weather Roundup
Issued by NWS

Home | Current Version | Previous Version | Graphics & Text | Print | Product List | Glossary On
Versions: 1 2 3 4 5 6 7 8 9 10 11 12 13 14 15 16 17 18 19 20 21 22 23 24 25 26 27 28 29 30 31 32 33 34 35 36 37 38 39 40 41 42 43 44 45 46 47 48 49 50
000
ASUS43 KLSX 180559
RWRMO

WEATHER SUMMARY FOR MISSOURI
NATIONAL WEATHER SERVICE SPRINGFIELD MO
100 AM CDT THU SEP 18 2014

NOTE: "FAIR" INDICATES FEW OR NO CLOUDS BELOW 12,000 FEET WITH NO
       SIGNIFICANT WEATHER AND/OR OBSTRUCTIONS TO VISIBILITY.
       CURRENT SKY AND/OR WEATHER CONDITIONS ARE NOT AVAILABLE FOR
       CHILLICOTHE AND FARMINGTON.

MOZ001>031-035>038-043-044-053-054-180700-
...NORTHERN AND WESTERN MISSOURI...

CITY           SKY/WX    TMP DP  RH WIND       PRES   REMARKS
KANSAS CTY INT PTCLDY    65  63  93 E8        29.96F
6HR MIN TEMP:  65; 6HR MAX TEMP:  71;

KANSAS C DTWN  PTCLDY    65  63  93 E7        29.95F
6HR MIN TEMP:  64; 6HR MAX TEMP:  72;

LEE`S SUMMIT   CLOUDY    64  63  96 E10       29.97S FOG
6HR MIN TEMP:  63; 6HR MAX TEMP:  69;

ST JOSEPH      MOCLDY    64  62  93 E6        29.97S
6HR MIN TEMP:  59; 6HR MAX TEMP:  75;

KIRKSVILLE     CLEAR     56  55  97 E5        30.02S FOG
6HR MIN TEMP:  55; 6HR MAX TEMP:  67;


$$
MOZ066>068-077>081-088>096-101>105-180700-
...SOUTHWEST MISSOURI...

CITY           SKY/WX    TMP DP  RH WIND       PRES   REMARKS
SPRINGFIELD    CLOUDY    65  62  90 SE10      29.94F
6HR MIN TEMP:  64; 6HR MAX TEMP:  68;

JOPLIN         CLOUDY    67  64  90 S5        29.89F
6HR MIN TEMP:  65; 6HR MAX TEMP:  72;


$$
MOZ032>034-039>042-045>050-055>058-069>072-180700-
...CENTRAL MISSOURI...

CITY           SKY/WX    TMP DP  RH WIND       PRES   REMARKS
COLUMBIA       NOT AVBL
JEFFERSON CITY CLOUDY    62  61  96 E5        29.98F FOG
6HR MIN TEMP:  62; 6HR MAX TEMP:  66; 6HR PCP: TRACE;

ROLLA          CLOUDY    61  60  97 E5        29.98R FOG
6HR MIN TEMP:  61; 6HR MAX TEMP:  63;

SEDALIA        FOG       63  62  97 E8        29.98F VSB 1/4
6HR MIN TEMP:  63; 6HR MAX TEMP:  70;

WHITEMAN AFB   CLOUDY    63  61  94 E6        29.97S FOG
OSAGE BEACH    CLOUDY    64  63  94 E5        29.97S

$$
MOZ051-052-059>065-180700-
...EAST CENTRAL MISSOURI...

CITY           SKY/WX    TMP DP  RH WIND       PRES   REMARKS
ST LOUIS INTL  CLOUDY    63  56  78 E6        30.00F
6HR MIN TEMP:  62; 6HR MAX TEMP:  64; 6HR PCP: TRACE;

SPIRIT OF STL  CLOUDY    61  57  87 NE3       29.99S
6HR MIN TEMP:  61; 6HR MAX TEMP:  63;

ST CHARLES     CLOUDY    61  57  87 NE3       30.00S
6HR MIN TEMP:  60; 6HR MAX TEMP:  62;


$$
MOZ072>076-082>087-097>100-106>115-180700-
...SOUTH CENTRAL AND SOUTHEAST MISSOURI...

CITY           SKY/WX    TMP DP  RH WIND       PRES   REMARKS
CAPE GIRARDEAU MOCLDY    58  56  93 N3        29.97S FOG
6HR MIN TEMP:  56; 6HR MAX TEMP:  65;

FARMINGTON     CLOUDY    59  57  94 CALM      30.00F
6HR MIN TEMP:  57; 6HR MAX TEMP:  61;

POPLAR BLUFF   CLOUDY    62  59  90 CALM      29.96S FOG
6HR MIN TEMP:  61; 6HR MAX TEMP:  63;

WEST PLAINS    FOG       60  59  96 E5        29.99F VSB 3/4
6HR MIN TEMP:  60; 6HR MAX TEMP:  65;


$$



USA.gov is the U.S. government's official web portal to all federal, state and local government web resources and services.